Harvey, ND

6:32 PM CDT on July 20, 2017 (GMT -0500)
Harvey

Weather History for K5H4 - October, 2012

Change the Weather History Date:

Friday, October 12, 2012

  Actual Average (KRUG) Record (KRUG)
Temperature  
Mean Temperature 36 °F -  
Max Temperature 53 °F 57 °F 81 °F (1956)
Min Temperature 19 °F 33 °F 17 °F (1993)
Degree Days  
Heating Degree Days 29    
Moisture  
Dew Point 25 °F    
Average Humidity 60    
Maximum Humidity 93    
Minimum Humidity 33    
Precipitation  
Precipitation 0.00 in - - ()
Sea Level Pressure  
Sea Level Pressure 30.00 in    
Wind  
Wind Speed 12 mph (South)    
Max Wind Speed 28 mph    
Max Gust Speed 37 mph    
Visibility 10 miles    
Events      
Averages and records for this station are not official NWS values.
T = Trace of Precipitation, MM = Missing Value Source: NWS Daily Summary

Daily Weather History Graph

Daily Weather History Graph

Search for Another Location

Airport or City:

Trip Planner

Search our weather history database for the weather conditions in past years. The results will help you decide how hot, cold, wet, or windy it might be!

Date:

Astronomy

Oct. 12, 2012 Rise Set
Actual Time 7:55 AM CDT 6:56 PM CDT
Civil Twilight 7:24 AM CDT 7:27 PM CDT
Nautical Twilight 6:48 AM CDT 8:02 PM CDT
Astronomical Twilight 6:12 AM CDT 8:38 PM CDT
Moon 4:28 AM CDT (10/12) 5:15 PM CDT (10/12)
Length of Visible Light 12h 03m
Length of Day
11h 00m
Waning Crescent, 10% of the Moon is Illuminated
Oct 12
Waning Crescent
Oct 15
New
Oct 21
First Quarter
Oct 29
Full
Nov 6
Last Quarter

Hourly Weather History & Observations

Time (CDT) Temp. Windchill Dew Point Humidity Pressure Visibility Wind Dir Wind Speed Gust Speed Precip Events Conditions
12:15 AM 19.4 °F 12.8 °F 17.6 °F 93% 30.32 in 10.0 mi South 4.6 mph - N/A   Clear
12:35 AM 23.0 °F 17.0 °F 19.4 °F 86% 30.32 in 10.0 mi South 4.6 mph - N/A   Clear
12:55 AM 24.8 °F 16.9 °F 23.0 °F 93% 30.31 in 10.0 mi South 6.9 mph - N/A   Clear
1:15 AM 26.6 °F 19.1 °F 23.0 °F 86% 30.30 in 10.0 mi South 6.9 mph - N/A   Clear
1:35 AM 26.6 °F 18.2 °F 21.2 °F 80% 30.30 in 10.0 mi South 8.1 mph - N/A   Clear
1:55 AM 26.6 °F 18.2 °F 21.2 °F 80% 30.30 in 10.0 mi SSE 8.1 mph - N/A   Clear
2:15 AM 26.6 °F 19.1 °F 21.2 °F 80% 30.29 in 10.0 mi South 6.9 mph - N/A   Clear
2:35 AM 26.6 °F 17.5 °F 23.0 °F 86% 30.28 in 10.0 mi South 9.2 mph - N/A   Clear
2:55 AM 28.4 °F 19.1 °F 23.0 °F 80% 30.27 in 10.0 mi South 10.4 mph 17.3 mph N/A   Clear
3:15 AM 28.4 °F 19.7 °F 23.0 °F 80% 30.27 in 10.0 mi South 9.2 mph - N/A   Clear
3:35 AM 28.4 °F 18.5 °F 23.0 °F 80% 30.25 in 10.0 mi South 11.5 mph 17.3 mph N/A   Clear
3:55 AM 28.4 °F 19.1 °F 23.0 °F 80% 30.24 in 10.0 mi South 10.4 mph - N/A   Clear
4:15 AM 28.4 °F 19.1 °F 23.0 °F 80% 30.24 in 10.0 mi South 10.4 mph - N/A   Clear
4:35 AM 28.4 °F 19.7 °F 24.8 °F 86% 30.22 in 10.0 mi South 9.2 mph - N/A   Partly Cloudy
4:55 AM 30.2 °F 21.9 °F 24.8 °F 80% 30.21 in 10.0 mi SSE 9.2 mph - N/A   Mostly Cloudy
5:15 AM 30.2 °F 21.3 °F 24.8 °F 80% 30.21 in 10.0 mi SSE 10.4 mph - N/A   Overcast
5:55 AM 32.0 °F 24.8 °F 26.6 °F 80% 30.19 in 10.0 mi SE 8.1 mph - N/A   Overcast
6:15 AM 32.0 °F 24.2 °F 26.6 °F 80% 30.19 in 10.0 mi SSE 9.2 mph - N/A   Overcast
6:35 AM 32.0 °F 23.0 °F 26.6 °F 80% 30.18 in 10.0 mi South 11.5 mph 19.6 mph N/A   Overcast
6:55 AM 32.0 °F 22.5 °F 24.8 °F 75% 30.17 in 10.0 mi South 12.7 mph 19.6 mph N/A   Overcast
7:15 AM 32.0 °F 21.6 °F 24.8 °F 75% 30.17 in 10.0 mi South 15.0 mph 20.7 mph N/A   Mostly Cloudy
7:35 AM 32.0 °F 21.6 °F 24.8 °F 75% 30.15 in 10.0 mi South 15.0 mph 20.7 mph N/A   Mostly Cloudy
7:55 AM 32.0 °F 23.0 °F 24.8 °F 75% 30.15 in 10.0 mi SSE 11.5 mph 19.6 mph N/A   Clear
8:15 AM 32.0 °F 23.0 °F 24.8 °F 75% 30.14 in 10.0 mi SSE 11.5 mph 17.3 mph N/A   Clear
8:35 AM 32.0 °F 23.0 °F 24.8 °F 75% 30.14 in 10.0 mi SSE 11.5 mph - N/A   Clear
9:15 AM 33.8 °F 23.9 °F 24.8 °F 70% 30.11 in 10.0 mi South 15.0 mph 20.7 mph N/A   Clear
9:35 AM 35.6 °F 27.1 °F 24.8 °F 65% 30.10 in 10.0 mi South 12.7 mph 20.7 mph N/A   Clear
9:55 AM 37.4 °F 27.5 °F 24.8 °F 60% 30.09 in 10.0 mi South 18.4 mph 27.6 mph N/A   Clear
10:15 AM 37.4 °F 27.8 °F 26.6 °F 65% 30.08 in 10.0 mi South 17.3 mph 32.2 mph N/A   Clear
10:35 AM 39.2 °F 29.6 °F 26.6 °F 61% 30.07 in 10.0 mi South 19.6 mph 27.6 mph N/A   Clear
11:15 AM 42.8 °F 33.3 °F 26.6 °F 53% 30.04 in 10.0 mi South 24.2 mph 34.5 mph N/A   Clear
11:35 AM 44.6 °F 36.4 °F 28.4 °F 53% 30.03 in 10.0 mi South 20.7 mph 27.6 mph N/A   Clear
11:55 AM 44.6 °F 36.4 °F 28.4 °F 53% 30.01 in 10.0 mi South 20.7 mph 29.9 mph N/A   Clear
12:15 PM 46.4 °F 38.5 °F 28.4 °F 50% 30.00 in 10.0 mi South 21.9 mph 32.2 mph N/A   Clear
12:35 PM 46.4 °F 38.3 °F 28.4 °F 50% 29.98 in 10.0 mi South 23.0 mph 35.7 mph N/A   Clear
12:55 PM 48.2 °F - 28.4 °F 46% 29.97 in 10.0 mi South 23.0 mph 36.8 mph N/A   Clear
1:35 PM 50.0 °F - 26.6 °F 40% 29.93 in 10.0 mi South 25.3 mph 33.4 mph N/A   Clear
1:55 PM 50.0 °F - 26.6 °F 40% 29.92 in 10.0 mi South 24.2 mph 31.1 mph N/A   Clear
2:15 PM 50.0 °F - 24.8 °F 37% 29.90 in 10.0 mi South 24.2 mph 36.8 mph N/A   Clear
2:35 PM 51.8 °F - 24.8 °F 35% 29.89 in 10.0 mi South 24.2 mph 33.4 mph N/A   Clear
2:55 PM 53.6 °F - 24.8 °F 33% 29.87 in 8.0 mi South 27.6 mph 34.5 mph N/A   Clear
3:15 PM 53.6 °F - 24.8 °F 33% 29.85 in 7.0 mi South 23.0 mph 32.2 mph N/A   Clear
3:35 PM 53.6 °F - 26.6 °F 35% 29.85 in 7.0 mi South 24.2 mph 33.4 mph N/A   Clear
3:55 PM 53.6 °F - 26.6 °F 35% 29.84 in 10.0 mi South 23.0 mph 35.7 mph N/A   Clear
4:15 PM 53.6 °F - 26.6 °F 35% 29.83 in 10.0 mi South 26.5 mph 34.5 mph N/A   Clear
4:35 PM 53.6 °F - 26.6 °F 35% 29.82 in 10.0 mi SSW 25.3 mph 34.5 mph N/A   Clear
4:55 PM 53.6 °F - 26.6 °F 35% 29.81 in 10.0 mi South 23.0 mph 31.1 mph N/A   Clear
5:15 PM 53.6 °F - 26.6 °F 35% 29.81 in 10.0 mi South 18.4 mph 31.1 mph N/A   Clear
5:55 PM 53.6 °F - 26.6 °F 35% 29.79 in 10.0 mi South 16.1 mph 24.2 mph N/A   Clear
6:15 PM 53.6 °F - 26.6 °F 35% 29.78 in 10.0 mi South 17.3 mph 24.2 mph N/A   Clear
6:35 PM 51.8 °F - 26.6 °F 38% 29.78 in 10.0 mi South 12.7 mph 20.7 mph N/A   Clear
6:55 PM 50.0 °F - 26.6 °F 40% 29.77 in 10.0 mi South 12.7 mph - N/A   Clear
7:15 PM 48.2 °F - 26.6 °F 43% 29.76 in 10.0 mi South 10.4 mph - N/A   Clear
7:35 PM 48.2 °F - 26.6 °F 43% 29.75 in 10.0 mi SE 8.1 mph - N/A   Clear
7:55 PM 46.4 °F 41.5 °F 26.6 °F 46% 29.74 in 10.0 mi SSE 10.4 mph - N/A   Clear
8:15 PM 44.6 °F 38.8 °F 26.6 °F 49% 29.74 in 10.0 mi SSE 11.5 mph - N/A   Clear
8:35 PM 44.6 °F 39.7 °F 26.6 °F 49% 29.73 in 10.0 mi SSE 9.2 mph - N/A   Clear
9:15 PM 41.0 °F 35.2 °F 26.6 °F 57% 29.71 in 10.0 mi SSE 9.2 mph - N/A   Clear
9:35 PM 41.0 °F 34.7 °F 26.6 °F 57% 29.70 in 10.0 mi SSE 10.4 mph - N/A   Clear
9:55 PM 41.0 °F 34.3 °F 26.6 °F 57% 29.69 in 10.0 mi SSE 11.5 mph - N/A   Clear
10:15 PM 41.0 °F 35.8 °F 26.6 °F 57% 29.68 in 10.0 mi SSE 8.1 mph - N/A   Clear
10:35 PM 41.0 °F 36.4 °F 26.6 °F 57% 29.68 in 10.0 mi SSE 6.9 mph - N/A   Clear
10:55 PM 41.0 °F 35.8 °F 26.6 °F 57% 29.68 in 10.0 mi South 8.1 mph - N/A   Clear
11:35 PM 42.8 °F 38.0 °F 26.6 °F 53% 29.67 in 10.0 mi South 8.1 mph - N/A   Clear
11:55 PM 44.6 °F 39.7 °F 26.6 °F 49% 29.66 in 10.0 mi South 9.2 mph - N/A   Clear